Year,Month,Day,Hour,Minute,Value (Times are PST for temperature in C)
2010,08,14,00,00,20.30
2010,08,14,00,01,20.30
2010,08,14,00,02,20.30
2010,08,14,00,03,20.40
2010,08,14,00,04,20.40
2010,08,14,00,05,20.40
2010,08,14,00,06,20.40
2010,08,14,00,07,20.30
2010,08,14,00,08,20.30
2010,08,14,00,09,20.30
2010,08,14,00,10,20.30
2010,08,14,00,11,20.20
2010,08,14,00,12,20.20
2010,08,14,00,13,20.20
2010,08,14,00,14,20.20
2010,08,14,00,15,20.20
2010,08,14,00,16,20.20
2010,08,14,00,17,20.30
2010,08,14,00,18,20.30
2010,08,14,00,19,20.20
2010,08,14,00,20,20.20
2010,08,14,00,21,20.10
2010,08,14,00,22,20.00
2010,08,14,00,23,20.00
2010,08,14,00,24,19.90
2010,08,14,00,25,19.90
2010,08,14,00,26,19.90
2010,08,14,00,27,19.90
2010,08,14,00,28,20.00
2010,08,14,00,29,20.20
2010,08,14,00,30,20.30
2010,08,14,00,31,20.30
2010,08,14,00,32,20.30
2010,08,14,00,33,20.30
2010,08,14,00,34,20.30
2010,08,14,00,35,20.30
2010,08,14,00,36,20.30
2010,08,14,00,37,20.20
2010,08,14,00,38,20.20
2010,08,14,00,39,20.20
2010,08,14,00,40,20.10
2010,08,14,00,41,20.10
2010,08,14,00,42,20.00
2010,08,14,00,43,20.00
2010,08,14,00,44,19.90
2010,08,14,00,45,19.90
2010,08,14,00,46,19.80
2010,08,14,00,47,19.80
2010,08,14,00,48,19.70
2010,08,14,00,49,19.60
2010,08,14,00,50,19.50
2010,08,14,00,51,19.50
2010,08,14,00,52,19.40
2010,08,14,00,53,19.40
2010,08,14,00,54,19.30
2010,08,14,00,55,19.30
2010,08,14,00,56,19.20
2010,08,14,00,57,19.20
2010,08,14,00,58,19.10
2010,08,14,00,59,19.10
2010,08,14,01,00,19.00
2010,08,14,01,01,18.90
2010,08,14,01,02,18.90
2010,08,14,01,03,18.80
2010,08,14,01,04,18.80
2010,08,14,01,05,18.80
2010,08,14,01,06,18.70
2010,08,14,01,07,18.70
2010,08,14,01,08,18.70
2010,08,14,01,09,18.70
2010,08,14,01,10,18.70
2010,08,14,01,11,18.70
2010,08,14,01,12,18.70
2010,08,14,01,13,18.60
2010,08,14,01,14,18.60
2010,08,14,01,15,18.60
2010,08,14,01,16,18.60
2010,08,14,01,17,18.50
2010,08,14,01,18,18.50
2010,08,14,01,19,18.40
2010,08,14,01,20,18.40
2010,08,14,01,21,18.30
2010,08,14,01,22,18.30
2010,08,14,01,23,18.30
2010,08,14,01,24,18.20
2010,08,14,01,25,18.20
2010,08,14,01,26,18.20
2010,08,14,01,27,18.20
2010,08,14,01,28,18.10
2010,08,14,01,29,18.10
2010,08,14,01,30,18.00
2010,08,14,01,31,18.00
2010,08,14,01,32,17.90
2010,08,14,01,33,17.90
2010,08,14,01,34,17.90
2010,08,14,01,35,17.80
2010,08,14,01,36,17.80
2010,08,14,01,37,17.80
2010,08,14,01,38,17.80
2010,08,14,01,39,17.80
2010,08,14,01,40,17.80
2010,08,14,01,41,17.80
2010,08,14,01,42,17.80
2010,08,14,01,43,17.80
2010,08,14,01,44,17.80
2010,08,14,01,45,17.80
2010,08,14,01,46,17.80
2010,08,14,01,47,17.70
2010,08,14,01,48,17.80
2010,08,14,01,49,17.70
2010,08,14,01,50,17.70
2010,08,14,01,51,17.70
2010,08,14,01,52,17.70
2010,08,14,01,53,17.60
2010,08,14,01,54,17.50
2010,08,14,01,55,17.50
2010,08,14,01,56,17.40
2010,08,14,01,57,17.30
2010,08,14,01,58,17.30
2010,08,14,01,59,17.20
2010,08,14,02,00,17.20
2010,08,14,02,01,17.10
2010,08,14,02,02,17.10
2010,08,14,02,03,17.10
2010,08,14,02,04,17.00
2010,08,14,02,05,17.00
2010,08,14,02,06,17.00
2010,08,14,02,07,16.90
2010,08,14,02,08,16.90
2010,08,14,02,09,16.90
2010,08,14,02,10,16.90
2010,08,14,02,11,16.90
2010,08,14,02,12,16.90
2010,08,14,02,13,16.90
2010,08,14,02,14,17.00
2010,08,14,02,15,17.00
2010,08,14,02,16,17.00
2010,08,14,02,17,17.00
2010,08,14,02,18,17.00
2010,08,14,02,19,16.90
2010,08,14,02,20,16.90
2010,08,14,02,21,16.90
2010,08,14,02,22,16.90
2010,08,14,02,23,16.90
2010,08,14,02,24,16.80
2010,08,14,02,25,16.80
2010,08,14,02,26,16.80
2010,08,14,02,27,16.80
2010,08,14,02,28,16.80
2010,08,14,02,29,16.90
2010,08,14,02,30,16.90
2010,08,14,02,31,17.00
2010,08,14,02,32,17.00
2010,08,14,02,33,17.00
2010,08,14,02,34,16.90
2010,08,14,02,35,16.90
2010,08,14,02,36,16.90
2010,08,14,02,37,16.90
2010,08,14,02,38,16.90
2010,08,14,02,39,16.90
2010,08,14,02,40,16.90
2010,08,14,02,41,16.90
2010,08,14,02,42,16.80
2010,08,14,02,43,16.80
2010,08,14,02,44,16.80
2010,08,14,02,45,16.80
2010,08,14,02,46,16.90
2010,08,14,02,47,17.00
2010,08,14,02,48,17.10
2010,08,14,02,49,17.10
2010,08,14,02,50,17.10
2010,08,14,02,51,17.00
2010,08,14,02,52,16.90
2010,08,14,02,53,16.80
2010,08,14,02,54,16.80
2010,08,14,02,55,16.70
2010,08,14,02,56,16.70
2010,08,14,02,57,16.70
2010,08,14,02,58,16.70
2010,08,14,02,59,16.70
2010,08,14,03,00,16.70
2010,08,14,03,01,16.70
2010,08,14,03,02,16.70
2010,08,14,03,06,16.80
2010,08,14,03,07,16.80
2010,08,14,03,08,16.80
2010,08,14,03,09,16.70
2010,08,14,03,10,16.70
2010,08,14,03,11,16.60
2010,08,14,03,12,16.60
2010,08,14,03,13,16.50
2010,08,14,03,14,16.50
2010,08,14,03,15,16.40
2010,08,14,03,16,16.40
2010,08,14,03,17,16.40
2010,08,14,03,18,16.50
2010,08,14,03,19,16.50
2010,08,14,03,20,16.50
2010,08,14,03,21,16.50
2010,08,14,03,22,16.50
2010,08,14,03,23,16.50
2010,08,14,03,24,16.50
2010,08,14,03,25,16.40
2010,08,14,03,26,16.40
2010,08,14,03,27,16.40
2010,08,14,03,28,16.40
2010,08,14,03,29,16.40
2010,08,14,03,30,16.40
2010,08,14,03,31,16.40
2010,08,14,03,32,16.40
2010,08,14,03,33,16.50
2010,08,14,03,34,16.60
2010,08,14,03,35,16.60
2010,08,14,03,36,16.70
2010,08,14,03,37,16.70
2010,08,14,03,38,16.80
2010,08,14,03,39,16.80
2010,08,14,03,40,16.80
2010,08,14,03,41,16.90
2010,08,14,03,42,16.90
2010,08,14,03,43,16.90
2010,08,14,03,44,16.90
2010,08,14,03,45,16.90
2010,08,14,03,46,16.90
2010,08,14,03,47,16.90
2010,08,14,03,48,16.90
2010,08,14,03,49,16.90
2010,08,14,03,50,16.90
2010,08,14,03,51,16.90
2010,08,14,03,52,16.90
2010,08,14,03,53,17.00
2010,08,14,03,54,17.10
2010,08,14,03,55,17.20
2010,08,14,03,56,17.30
2010,08,14,03,57,17.40
2010,08,14,03,58,17.50
2010,08,14,03,59,17.50
2010,08,14,04,00,17.50
2010,08,14,04,01,17.50
2010,08,14,04,02,17.50
2010,08,14,04,03,17.50
2010,08,14,04,04,17.40
2010,08,14,04,05,17.40
2010,08,14,04,06,17.30
2010,08,14,04,07,17.30
2010,08,14,04,08,17.30
2010,08,14,04,09,17.20
2010,08,14,04,10,17.20
2010,08,14,04,11,17.20
2010,08,14,04,12,17.20
2010,08,14,04,13,17.10
2010,08,14,04,14,17.10
2010,08,14,04,15,17.00
2010,08,14,04,16,16.90
2010,08,14,04,17,16.90
2010,08,14,04,18,16.90
2010,08,14,04,19,17.10
2010,08,14,04,20,17.20
2010,08,14,04,21,17.30
2010,08,14,04,22,17.30
2010,08,14,04,23,17.20
2010,08,14,04,24,17.20
2010,08,14,04,25,17.20
2010,08,14,04,26,17.10
2010,08,14,04,27,17.10
2010,08,14,04,28,17.10
2010,08,14,04,29,17.00
2010,08,14,04,30,16.90
2010,08,14,04,31,16.90
2010,08,14,04,32,16.90
2010,08,14,04,33,17.00
2010,08,14,04,34,17.10
2010,08,14,04,35,17.10
2010,08,14,04,36,17.10
2010,08,14,04,37,17.10
2010,08,14,04,38,17.10
2010,08,14,04,39,17.10
2010,08,14,04,40,17.10
2010,08,14,04,41,17.10
2010,08,14,04,42,17.00
2010,08,14,04,43,17.00
2010,08,14,04,44,17.00
2010,08,14,04,45,17.00
2010,08,14,04,46,17.10
2010,08,14,04,47,17.20
2010,08,14,04,48,17.30
2010,08,14,04,49,17.30
2010,08,14,04,50,17.40
2010,08,14,04,51,17.40
2010,08,14,04,52,17.40
2010,08,14,04,53,17.30
2010,08,14,04,54,17.30
2010,08,14,04,55,17.30
2010,08,14,04,56,17.20
2010,08,14,04,57,17.20
2010,08,14,04,58,17.30
2010,08,14,04,59,17.30
2010,08,14,05,00,17.20
2010,08,14,05,01,17.20
2010,08,14,05,02,17.20
2010,08,14,05,03,17.20
2010,08,14,05,04,17.20
2010,08,14,05,05,17.20
2010,08,14,05,06,17.20
2010,08,14,05,07,17.20
2010,08,14,05,08,17.30
2010,08,14,05,09,17.30
2010,08,14,05,10,17.40
2010,08,14,05,11,17.50
2010,08,14,05,12,17.50
2010,08,14,05,13,17.60
2010,08,14,05,14,17.60
2010,08,14,05,15,17.60
2010,08,14,05,16,17.60
2010,08,14,05,17,17.60
2010,08,14,05,18,17.60
2010,08,14,05,19,17.70
2010,08,14,05,20,17.70
2010,08,14,05,21,17.60
2010,08,14,05,22,17.60
2010,08,14,05,23,17.60
2010,08,14,05,24,17.50
2010,08,14,05,25,17.40
2010,08,14,05,26,17.40
2010,08,14,05,27,17.30
2010,08,14,05,28,17.30
2010,08,14,05,29,17.40
2010,08,14,05,30,17.40
2010,08,14,05,31,17.40
2010,08,14,05,32,17.40
2010,08,14,05,33,17.40
2010,08,14,05,34,17.40
2010,08,14,05,35,17.30
2010,08,14,05,36,17.30
2010,08,14,05,37,17.30
2010,08,14,05,38,17.30
2010,08,14,05,39,17.30
2010,08,14,05,40,17.30
2010,08,14,05,41,17.30
2010,08,14,05,42,17.30
2010,08,14,05,43,17.30
2010,08,14,05,44,17.20
2010,08,14,05,45,17.20
2010,08,14,05,46,17.20
2010,08,14,05,47,17.20
2010,08,14,05,48,17.10
2010,08,14,05,49,17.10
2010,08,14,05,50,17.10
2010,08,14,05,51,17.10
2010,08,14,05,52,17.00
2010,08,14,05,53,17.00
2010,08,14,05,54,17.10
2010,08,14,05,55,17.10
2010,08,14,05,56,17.10
2010,08,14,05,57,17.20
2010,08,14,05,58,17.30
2010,08,14,05,59,17.30
2010,08,14,06,00,17.40
2010,08,14,06,01,17.40
2010,08,14,06,02,17.40
2010,08,14,06,03,17.40
2010,08,14,06,04,17.30
2010,08,14,06,05,17.30
2010,08,14,06,06,17.30
2010,08,14,06,07,17.30
2010,08,14,06,08,17.30
2010,08,14,06,09,17.30
2010,08,14,06,10,17.30
2010,08,14,06,11,17.40
2010,08,14,06,12,17.40
2010,08,14,06,13,17.40
2010,08,14,06,14,17.40
2010,08,14,06,15,17.50
2010,08,14,06,16,17.50
2010,08,14,06,17,17.50
2010,08,14,06,18,17.50
2010,08,14,06,19,17.40
2010,08,14,06,20,17.40
2010,08,14,06,21,17.40
2010,08,14,06,22,17.40
2010,08,14,06,23,17.40
2010,08,14,06,24,17.50
2010,08,14,06,25,17.50
2010,08,14,06,26,17.50
2010,08,14,06,27,17.50
2010,08,14,06,28,17.50
2010,08,14,06,29,17.40
2010,08,14,06,30,17.40
2010,08,14,06,31,17.40
2010,08,14,06,32,17.40
2010,08,14,06,33,17.40
2010,08,14,06,34,17.50
2010,08,14,06,35,17.60
2010,08,14,06,36,17.70
2010,08,14,06,37,17.90
2010,08,14,06,38,18.10
2010,08,14,06,39,18.30
2010,08,14,06,40,18.40
2010,08,14,06,41,18.60
2010,08,14,06,42,18.80
2010,08,14,06,43,18.90
2010,08,14,06,44,19.00
2010,08,14,06,45,19.10
2010,08,14,06,46,19.20
2010,08,14,06,47,19.20
2010,08,14,06,48,19.20
2010,08,14,06,49,19.20
2010,08,14,06,50,19.20
2010,08,14,06,51,19.10
2010,08,14,06,52,19.10
2010,08,14,06,53,19.10
2010,08,14,06,54,19.20
2010,08,14,06,55,19.10
2010,08,14,06,56,19.10
2010,08,14,06,57,19.10
2010,08,14,06,58,19.10
2010,08,14,06,59,19.10
2010,08,14,07,00,19.10
2010,08,14,07,01,19.00
2010,08,14,07,02,18.90
2010,08,14,07,03,18.90
2010,08,14,07,04,18.80
2010,08,14,07,05,18.70
2010,08,14,07,06,18.70
2010,08,14,07,07,18.70
2010,08,14,07,08,18.80
2010,08,14,07,09,18.80
2010,08,14,07,10,18.90
2010,08,14,07,11,19.00
2010,08,14,07,12,19.10
2010,08,14,07,13,19.20
2010,08,14,07,14,19.20
2010,08,14,07,15,19.30
2010,08,14,07,16,19.30
2010,08,14,07,17,19.40
2010,08,14,07,18,19.40
2010,08,14,07,19,19.40
2010,08,14,07,20,19.50
2010,08,14,07,21,19.50
2010,08,14,07,22,19.50
2010,08,14,07,23,19.50
2010,08,14,07,24,19.50
2010,08,14,07,25,19.50
2010,08,14,07,26,19.60
2010,08,14,07,27,19.60
2010,08,14,07,28,19.70
2010,08,14,07,29,19.80
2010,08,14,07,30,19.80
2010,08,14,07,31,19.90
2010,08,14,07,32,20.00
2010,08,14,07,33,20.10
2010,08,14,07,34,20.20
2010,08,14,07,35,20.30
2010,08,14,07,36,20.40
2010,08,14,07,37,20.50
2010,08,14,07,38,20.60
2010,08,14,07,39,20.70
2010,08,14,07,40,20.80
2010,08,14,07,41,20.90
2010,08,14,07,42,21.00
2010,08,14,07,43,21.10
2010,08,14,07,44,21.20
2010,08,14,07,45,21.20
2010,08,14,07,46,21.30
2010,08,14,07,47,21.40
2010,08,14,07,48,21.60
2010,08,14,07,49,21.70
2010,08,14,07,50,21.80
2010,08,14,07,51,21.80
2010,08,14,07,52,21.90
2010,08,14,07,53,22.00
2010,08,14,07,54,22.10
2010,08,14,07,55,22.20
2010,08,14,07,56,22.20
2010,08,14,07,57,22.30
2010,08,14,07,58,22.30
2010,08,14,07,59,22.40
2010,08,14,08,00,22.40
2010,08,14,08,01,22.40
2010,08,14,08,02,22.40
2010,08,14,08,03,22.50
2010,08,14,08,04,22.50
2010,08,14,08,05,22.60
2010,08,14,08,06,22.70
2010,08,14,08,07,22.70
2010,08,14,08,08,22.80
2010,08,14,08,09,22.80
2010,08,14,08,10,22.80
2010,08,14,08,11,22.90
2010,08,14,08,12,22.90
2010,08,14,08,13,23.00
2010,08,14,08,14,23.00
2010,08,14,08,15,23.10
2010,08,14,08,16,23.20
2010,08,14,08,17,23.20
2010,08,14,08,18,23.30
2010,08,14,08,19,23.30
2010,08,14,08,20,23.40
2010,08,14,08,21,23.40
2010,08,14,08,22,23.40
2010,08,14,08,23,23.50
2010,08,14,08,24,23.50
2010,08,14,08,25,23.60
2010,08,14,08,26,23.60
2010,08,14,08,27,23.60
2010,08,14,08,28,23.70
2010,08,14,08,29,23.70
2010,08,14,08,30,23.70
2010,08,14,08,31,23.80
2010,08,14,08,32,23.80
2010,08,14,08,33,23.80
2010,08,14,08,34,23.90
2010,08,14,08,35,23.90
2010,08,14,08,36,24.00
2010,08,14,08,37,24.00
2010,08,14,08,38,24.10
2010,08,14,08,39,24.10
2010,08,14,08,40,24.20
2010,08,14,08,41,24.20
2010,08,14,08,42,24.30
2010,08,14,08,43,24.30
2010,08,14,08,44,24.40
2010,08,14,08,45,24.40
2010,08,14,08,46,24.50
2010,08,14,08,47,24.50
2010,08,14,08,48,24.60
2010,08,14,08,49,24.60
2010,08,14,08,50,24.70
2010,08,14,08,51,24.70
2010,08,14,08,52,24.70
2010,08,14,08,53,24.70
2010,08,14,08,54,24.70
2010,08,14,08,55,24.70
2010,08,14,08,56,24.70
2010,08,14,08,57,24.70
2010,08,14,08,58,24.70
2010,08,14,08,59,24.70
2010,08,14,09,00,24.70
2010,08,14,09,01,24.70
2010,08,14,09,02,24.70
2010,08,14,09,03,24.70
2010,08,14,09,04,24.70
2010,08,14,09,05,24.70
2010,08,14,09,06,24.70
2010,08,14,09,07,24.80
2010,08,14,09,08,24.80
2010,08,14,09,09,24.80
2010,08,14,09,10,24.90
2010,08,14,09,11,24.90
2010,08,14,09,12,24.90
2010,08,14,09,13,25.00
2010,08,14,09,14,25.10
2010,08,14,09,15,25.10
2010,08,14,09,16,25.20
2010,08,14,09,17,25.20
2010,08,14,09,18,25.30
2010,08,14,09,19,25.30
2010,08,14,09,20,25.30
2010,08,14,09,21,25.30
2010,08,14,09,22,25.30
2010,08,14,09,23,25.40
2010,08,14,09,24,25.40
2010,08,14,09,25,25.40
2010,08,14,09,26,25.40
2010,08,14,09,27,25.40
2010,08,14,09,28,25.40
2010,08,14,09,29,25.40
2010,08,14,09,30,25.40
2010,08,14,09,31,25.40
2010,08,14,09,32,25.40
2010,08,14,09,33,25.40
2010,08,14,09,34,25.40
2010,08,14,09,35,25.40
2010,08,14,09,36,25.40
2010,08,14,09,37,25.50
2010,08,14,09,38,25.50
2010,08,14,09,39,25.60
2010,08,14,09,40,25.60
2010,08,14,09,41,25.70
2010,08,14,09,42,25.70
2010,08,14,09,43,25.70
2010,08,14,09,44,25.70
2010,08,14,09,45,25.70
2010,08,14,09,46,25.70
2010,08,14,09,47,25.70
2010,08,14,09,48,25.70
2010,08,14,09,49,25.80
2010,08,14,09,50,25.80
2010,08,14,09,51,25.80
2010,08,14,09,52,25.80
2010,08,14,09,53,25.90
2010,08,14,09,54,25.90
2010,08,14,09,55,25.90
2010,08,14,09,56,26.00
2010,08,14,09,57,26.10
2010,08,14,09,58,26.10
2010,08,14,09,59,26.20
2010,08,14,10,00,26.30
2010,08,14,10,01,26.40
2010,08,14,10,02,26.40
2010,08,14,10,03,26.40
2010,08,14,10,04,26.40
2010,08,14,10,05,26.40
2010,08,14,10,06,26.50
2010,08,14,10,07,26.50
2010,08,14,10,08,26.50
2010,08,14,10,09,26.50
2010,08,14,10,10,26.40
2010,08,14,10,11,26.30
2010,08,14,10,12,26.20
2010,08,14,10,13,26.10
2010,08,14,10,14,26.10
2010,08,14,10,15,26.00
2010,08,14,10,16,26.00
2010,08,14,10,17,25.90
2010,08,14,10,18,25.90
2010,08,14,10,19,25.80
2010,08,14,10,20,25.80
2010,08,14,10,21,25.80
2010,08,14,10,22,25.80
2010,08,14,10,23,25.80
2010,08,14,10,24,25.80
2010,08,14,10,25,25.80
2010,08,14,10,26,25.80
2010,08,14,10,27,25.90
2010,08,14,10,28,25.90
2010,08,14,10,29,25.90
2010,08,14,10,30,25.90
2010,08,14,10,31,25.90
2010,08,14,10,32,25.90
2010,08,14,10,33,25.90
2010,08,14,10,34,26.00
2010,08,14,10,35,26.00
2010,08,14,10,36,26.10
2010,08,14,10,37,26.20
2010,08,14,10,38,26.20
2010,08,14,10,39,26.20
2010,08,14,10,40,26.20
2010,08,14,10,41,26.10
2010,08,14,10,42,26.10
2010,08,14,10,43,26.00
2010,08,14,10,44,26.00
2010,08,14,10,45,26.00
2010,08,14,10,46,26.00
2010,08,14,10,47,26.10
2010,08,14,10,48,26.10
2010,08,14,10,49,26.20
2010,08,14,10,50,26.30
2010,08,14,10,51,26.30
2010,08,14,10,52,26.30
2010,08,14,10,53,26.30
2010,08,14,10,54,26.30
2010,08,14,10,55,26.20
2010,08,14,10,56,26.10
2010,08,14,10,57,26.00
2010,08,14,10,58,25.90
2010,08,14,10,59,25.90
2010,08,14,11,00,25.90
2010,08,14,11,01,25.90
2010,08,14,11,02,25.90
2010,08,14,11,03,26.00
2010,08,14,11,04,26.10
2010,08,14,11,05,26.20
2010,08,14,11,06,26.10
2010,08,14,11,07,26.10
2010,08,14,11,08,26.20
2010,08,14,11,09,26.20
2010,08,14,11,10,26.20
2010,08,14,11,11,26.30
2010,08,14,11,12,26.30
2010,08,14,11,13,26.40
2010,08,14,11,14,26.40
2010,08,14,11,15,26.40
2010,08,14,11,16,26.40
2010,08,14,11,17,26.30
2010,08,14,11,18,26.30
2010,08,14,11,19,26.30
2010,08,14,11,20,26.30
2010,08,14,11,21,26.30
2010,08,14,11,22,26.30
2010,08,14,11,23,26.30
2010,08,14,11,24,26.40
2010,08,14,11,25,26.50
2010,08,14,11,26,26.60
2010,08,14,11,27,26.70
2010,08,14,11,28,26.80
2010,08,14,11,29,26.80
2010,08,14,11,30,26.90
2010,08,14,11,31,27.00
2010,08,14,11,32,27.00
2010,08,14,11,33,27.10
2010,08,14,11,34,27.10
2010,08,14,11,35,27.10
2010,08,14,11,36,27.10
2010,08,14,11,37,27.10
2010,08,14,11,38,27.10
2010,08,14,11,39,27.10
2010,08,14,11,40,27.10
2010,08,14,11,41,27.10
2010,08,14,11,42,27.00
2010,08,14,11,43,27.00
2010,08,14,11,44,27.00
2010,08,14,11,45,27.00
2010,08,14,11,46,27.00
2010,08,14,11,47,27.00
2010,08,14,11,48,27.00
2010,08,14,11,49,27.00
2010,08,14,11,50,27.00
2010,08,14,11,51,27.10
2010,08,14,11,52,27.20
2010,08,14,11,53,27.30
2010,08,14,11,54,27.40
2010,08,14,11,55,27.40
2010,08,14,11,56,27.50
2010,08,14,11,57,27.60
2010,08,14,11,58,27.60
2010,08,14,11,59,27.60
2010,08,14,12,00,27.60
2010,08,14,12,01,27.60
2010,08,14,12,02,27.60
2010,08,14,12,03,27.70
2010,08,14,12,04,27.80
2010,08,14,12,05,27.90
2010,08,14,12,06,27.90
2010,08,14,12,07,28.00
2010,08,14,12,08,28.10
2010,08,14,12,09,28.20
2010,08,14,12,10,28.20
2010,08,14,12,11,28.30
2010,08,14,12,12,28.30
2010,08,14,12,13,28.30
2010,08,14,12,14,28.30
2010,08,14,12,15,28.20
2010,08,14,12,16,28.20
2010,08,14,12,17,28.10
2010,08,14,12,18,28.10
2010,08,14,12,19,28.10
2010,08,14,12,20,28.10
2010,08,14,12,21,28.10
2010,08,14,12,22,28.10
2010,08,14,12,23,28.10
2010,08,14,12,24,28.10
2010,08,14,12,25,28.10
2010,08,14,12,26,28.10
2010,08,14,12,27,28.00
2010,08,14,12,28,28.00
2010,08,14,12,29,27.90
2010,08,14,12,30,27.90
2010,08,14,12,31,28.00
2010,08,14,12,32,28.00
2010,08,14,12,33,27.90
2010,08,14,12,34,27.90
2010,08,14,12,35,27.90
2010,08,14,12,36,28.00
2010,08,14,12,37,28.10
2010,08,14,12,38,28.10
2010,08,14,12,39,28.00
2010,08,14,12,40,27.90
2010,08,14,12,41,27.90
2010,08,14,12,42,28.00
2010,08,14,12,43,28.00
2010,08,14,12,44,28.10
2010,08,14,12,45,28.10
2010,08,14,12,46,28.10
2010,08,14,12,47,28.10
2010,08,14,12,48,28.10
2010,08,14,12,49,28.10
2010,08,14,12,50,28.20
2010,08,14,12,51,28.20
2010,08,14,12,52,28.20
2010,08,14,12,53,28.30
2010,08,14,12,54,28.30
2010,08,14,12,55,28.30
2010,08,14,12,56,28.20
2010,08,14,12,57,28.20
2010,08,14,12,58,28.30
2010,08,14,12,59,28.30
2010,08,14,13,00,28.30
2010,08,14,13,01,28.40
2010,08,14,13,02,28.50
2010,08,14,13,03,28.50
2010,08,14,13,04,28.50
2010,08,14,13,05,28.40
2010,08,14,13,06,28.40
2010,08,14,13,07,28.30
2010,08,14,13,08,28.40
2010,08,14,13,09,28.40
2010,08,14,13,10,28.50
2010,08,14,13,11,28.60
2010,08,14,13,12,28.70
2010,08,14,13,13,28.80
2010,08,14,13,14,28.90
2010,08,14,13,15,28.90
2010,08,14,13,16,29.00
2010,08,14,13,17,29.00
2010,08,14,13,18,29.10
2010,08,14,13,19,29.10
2010,08,14,13,20,29.20
2010,08,14,13,21,29.20
2010,08,14,13,22,29.20
2010,08,14,13,23,29.10
2010,08,14,13,24,29.00
2010,08,14,13,25,28.90
2010,08,14,13,26,28.70
2010,08,14,13,27,28.60
2010,08,14,13,28,28.50
2010,08,14,13,29,28.40
2010,08,14,13,30,28.30
2010,08,14,13,31,28.30
2010,08,14,13,32,28.30
2010,08,14,13,33,28.40
2010,08,14,13,34,28.40
2010,08,14,13,35,28.40
2010,08,14,13,36,28.40
2010,08,14,13,37,28.50
2010,08,14,13,38,28.60
2010,08,14,13,39,28.60
2010,08,14,13,40,28.70
2010,08,14,13,41,28.70
2010,08,14,13,42,28.70
2010,08,14,13,43,28.80
2010,08,14,13,44,28.90
2010,08,14,13,45,29.00
2010,08,14,13,46,29.10
2010,08,14,13,47,29.00
2010,08,14,13,48,28.90
2010,08,14,13,49,28.80
2010,08,14,13,50,28.80
2010,08,14,13,51,28.80
2010,08,14,13,52,28.70
2010,08,14,13,53,28.70
2010,08,14,13,54,28.90
2010,08,14,13,55,29.00
2010,08,14,13,56,29.10
2010,08,14,13,57,29.10
2010,08,14,13,58,29.20
2010,08,14,13,59,29.20
2010,08,14,14,00,29.30
2010,08,14,14,01,29.30
2010,08,14,14,02,29.30
2010,08,14,14,03,29.30
2010,08,14,14,04,29.30
2010,08,14,14,05,29.20
2010,08,14,14,06,29.30
2010,08,14,14,07,29.40
2010,08,14,14,08,29.50
2010,08,14,14,09,29.60
2010,08,14,14,10,29.70
2010,08,14,14,11,29.70
2010,08,14,14,12,29.70
2010,08,14,14,13,29.70
2010,08,14,14,14,29.70
2010,08,14,14,15,29.70
2010,08,14,14,16,29.80
2010,08,14,14,17,29.90
2010,08,14,14,18,29.90
2010,08,14,14,19,29.90
2010,08,14,14,20,29.80
2010,08,14,14,21,29.80
2010,08,14,14,22,29.70
2010,08,14,14,23,29.70
2010,08,14,14,24,29.80
2010,08,14,14,25,29.90
2010,08,14,14,26,29.90
2010,08,14,14,27,30.00
2010,08,14,14,28,30.00
2010,08,14,14,29,29.90
2010,08,14,14,30,30.00
2010,08,14,14,31,30.20
2010,08,14,14,32,30.20
2010,08,14,14,33,30.20
2010,08,14,14,34,30.20
2010,08,14,14,35,30.20
2010,08,14,14,36,30.20
2010,08,14,14,37,30.20
2010,08,14,14,38,30.30
2010,08,14,14,39,30.30
2010,08,14,14,40,30.30
2010,08,14,14,41,30.30
2010,08,14,14,42,30.30
2010,08,14,14,43,30.40
2010,08,14,14,44,30.40
2010,08,14,14,45,30.40
2010,08,14,14,46,30.40
2010,08,14,14,47,30.30
2010,08,14,14,48,30.30
2010,08,14,14,49,30.30
2010,08,14,14,50,30.40
2010,08,14,14,51,30.40
2010,08,14,14,52,30.40
2010,08,14,14,53,30.40
2010,08,14,14,54,30.40
2010,08,14,14,55,30.50
2010,08,14,14,56,30.50
2010,08,14,14,57,30.60
2010,08,14,14,58,30.60
2010,08,14,14,59,30.70
2010,08,14,15,00,30.70
2010,08,14,15,01,30.60
2010,08,14,15,02,30.60
2010,08,14,15,03,30.50
2010,08,14,15,04,30.40
2010,08,14,15,05,30.40
2010,08,14,15,06,30.40
2010,08,14,15,07,30.50
2010,08,14,15,08,30.60
2010,08,14,15,09,30.50
2010,08,14,15,10,30.50
2010,08,14,15,11,30.60
2010,08,14,15,12,30.60
2010,08,14,15,13,30.70
2010,08,14,15,14,30.80
2010,08,14,15,15,30.80
2010,08,14,15,16,30.90
2010,08,14,15,17,30.90
2010,08,14,15,18,31.00
2010,08,14,15,19,31.00
2010,08,14,15,20,31.10
2010,08,14,15,21,31.10
2010,08,14,15,22,31.00
2010,08,14,15,23,31.00
2010,08,14,15,24,31.00
2010,08,14,15,25,31.00
2010,08,14,15,26,31.00
2010,08,14,15,27,31.00
2010,08,14,15,28,31.10
2010,08,14,15,29,31.00
2010,08,14,15,30,31.00
2010,08,14,15,31,30.90
2010,08,14,15,32,30.90
2010,08,14,15,33,30.90
2010,08,14,15,34,30.80
2010,08,14,15,35,30.70
2010,08,14,15,36,30.70
2010,08,14,15,37,30.70
2010,08,14,15,38,30.80
2010,08,14,15,39,30.80
2010,08,14,15,40,30.80
2010,08,14,15,41,30.80
2010,08,14,15,42,30.90
2010,08,14,15,43,31.00
2010,08,14,15,44,31.10
2010,08,14,15,45,31.10
2010,08,14,15,46,31.10
2010,08,14,15,47,31.20
2010,08,14,15,48,31.10
2010,08,14,15,49,31.00
2010,08,14,15,50,31.00
2010,08,14,15,51,30.90
2010,08,14,15,52,30.90
2010,08,14,15,53,30.90
2010,08,14,15,54,30.90
2010,08,14,15,55,31.00
2010,08,14,15,56,31.20
2010,08,14,15,57,31.20
2010,08,14,15,58,31.20
2010,08,14,15,59,31.30
2010,08,14,16,00,31.30
2010,08,14,16,01,31.30
2010,08,14,16,02,31.30
2010,08,14,16,03,31.30
2010,08,14,16,04,31.40
2010,08,14,16,05,31.50
2010,08,14,16,06,31.50
2010,08,14,16,07,31.60
2010,08,14,16,08,31.50
2010,08,14,16,09,31.40
2010,08,14,16,10,31.20
2010,08,14,16,11,31.10
2010,08,14,16,12,31.00
2010,08,14,16,13,30.90
2010,08,14,16,14,31.00
2010,08,14,16,15,31.10
2010,08,14,16,16,31.20
2010,08,14,16,17,31.20
2010,08,14,16,18,31.30
2010,08,14,16,19,31.30
2010,08,14,16,20,31.40
2010,08,14,16,21,31.40
2010,08,14,16,22,31.40
2010,08,14,16,23,31.40
2010,08,14,16,24,31.30
2010,08,14,16,25,31.30
2010,08,14,16,26,31.30
2010,08,14,16,27,31.30
2010,08,14,16,28,31.30
2010,08,14,16,29,31.40
2010,08,14,16,30,31.40
2010,08,14,16,31,31.40
2010,08,14,16,32,31.40
2010,08,14,16,33,31.30
2010,08,14,16,34,31.30
2010,08,14,16,35,31.30
2010,08,14,16,36,31.40
2010,08,14,16,37,31.40
2010,08,14,16,38,31.40
2010,08,14,16,39,31.30
2010,08,14,16,40,31.30
2010,08,14,16,41,31.30
2010,08,14,16,42,31.30
2010,08,14,16,43,31.30
2010,08,14,16,44,31.40
2010,08,14,16,45,31.30
2010,08,14,16,46,31.20
2010,08,14,16,47,31.20
2010,08,14,16,48,31.10
2010,08,14,16,49,31.10
2010,08,14,16,50,31.20
2010,08,14,16,51,31.20
2010,08,14,16,52,31.30
2010,08,14,16,53,31.30
2010,08,14,16,54,31.40
2010,08,14,16,55,31.40
2010,08,14,16,56,31.50
2010,08,14,16,57,31.60
2010,08,14,16,58,31.60
2010,08,14,16,59,31.60
2010,08,14,17,00,31.70
2010,08,14,17,01,31.70
2010,08,14,17,02,31.80
2010,08,14,17,03,31.80
2010,08,14,17,04,31.80
2010,08,14,17,05,31.80
2010,08,14,17,06,31.70
2010,08,14,17,07,31.70
2010,08,14,17,08,31.70
2010,08,14,17,09,31.70
2010,08,14,17,10,31.80
2010,08,14,17,11,31.80
2010,08,14,17,12,31.70
2010,08,14,17,13,31.60
2010,08,14,17,14,31.60
2010,08,14,17,15,31.60
2010,08,14,17,16,31.60
2010,08,14,17,17,31.60
2010,08,14,17,18,31.70
2010,08,14,17,19,31.70
2010,08,14,17,20,31.70
2010,08,14,17,21,31.70
2010,08,14,17,22,31.60